Wind_Speed
43 46 48 47 48 50 50 51 51 51 51 52 51 50 49 49 48 47 47 46 46 45 45 45 44 44 43 43 41 40 39 38 37 36 36 35 35 34 34 34 33 33 33 34
41 43 44 46 47 48 50 51 51 52 52 53 52 52 50 50 48 47 47 46 46 46 46 45 45 44 44 43 42 41 40 39 38 37 37 36 36 35 35 35 35 35 35 35
39 41 42 44 46 47 48 50 50 50 51 53 53 53 52 51 50 49 48 47 47 47 47 46 46 45 44 43 42 42 41 40 39 38 38 37 37 36 36 35 36 36 36 36
35 38 40 42 44 45 46 48 49 50 51 52 53 54 52 51 51 50 49 48 48 48 47 47 46 45 44 44 43 43 42 41 41 40 39 38 38 37 37 36 36 36 36 37
33 35 37 39 40 42 42 44 46 48 50 52 53 54 53 51 51 51 50 49 48 48 48 47 47 46 46 45 44 43 43 42 41 40 40 39 39 38 38 38 37 37 37 38
32 32 35 37 39 40 41 41 42 45 47 51 51 53 54 52 50 50 50 49 48 48 48 47 47 47 46 46 44 44 43 43 42 41 41 40 40 39 39 38 38 38 38 38
29 32 33 34 37 40 40 41 40 42 45 48 48 50 51 50 49 49 49 49 48 47 47 47 47 46 46 46 45 44 44 43 42 42 41 41 40 40 39 39 39 39 39 39
25 28 30 32 35 37 38 39 40 41 43 44 45 48 48 47 47 48 49 49 49 48 47 47 46 46 46 46 45 45 44 43 43 42 42 41 41 41 40 40 39 39 39 40
23 25 28 30 33 34 34 36 37 38 40 41 43 45 45 46 46 46 47 47 48 47 47 46 46 46 46 46 45 45 44 43 43 43 42 42 41 41 40 40 40 40 40 40
22 23 26 29 31 34 34 33 34 34 36 38 40 42 43 42 42 44 45 45 46 47 47 47 46 46 46 46 45 45 44 44 43 43 42 42 42 41 41 40 40 41 40 40
21 22 24 27 30 32 34 33 34 33 34 35 37 39 39 40 40 41 42 43 44 45 46 46 46 45 45 45 45 44 44 44 44 43 42 42 42 41 41 41 41 41 40 41
20 21 22 25 28 30 33 32 33 34 33 33 33 35 35 36 37 39 40 40 41 42 43 44 45 45 45 44 44 44 44 44 43 43 43 43 42 41 41 41 41 41 41 40
18 19 20 23 26 29 31 31 32 33 34 33 33 34 32 33 35 36 38 39 40 40 40 41 42 43 43 44 44 43 43 43 43 43 43 43 42 42 42 41 41 41 40 40
19 20 21 22 23 26 28 29 30 31 32 33 33 33 32 32 33 35 36 37 38 39 40 40 40 40 41 42 42 42 42 42 42 42 42 41 41 41 41 40 40 40 40 40
19 21 22 21 22 24 26 28 29 30 29 30 30 31 31 32 32 33 34 36 36 37 38 39 39 39 40 41 41 41 41 41 41 41 41 40 40 40 40 40 40 40 40 41
18 20 22 22 22 24 25 27 29 31 31 30 29 29 30 32 32 33 34 35 35 36 36 37 38 38 38 39 39 40 40 40 40 40 40 40 39 39 39 39 39 40 40 40
17 19 21 21 21 23 26 27 28 29 30 29 28 27 29 31 32 33 33 34 35 35 36 36 37 37 38 38 38 39 39 39 40 39 39 39 39 39 39 39 39 39 39 39
16 18 20 21 21 21 23 25 26 27 28 29 28 28 27 29 30 31 33 34 34 35 35 35 36 37 38 38 38 38 38 39 39 39 39 39 39 39 39 38 38 38 38 38
14 16 18 20 22 21 21 22 23 24 25 27 27 27 27 27 28 29 31 33 34 35 35 35 36 36 37 37 38 38 37 38 38 38 38 37 38 38 38 38 38 38 38 38
14 15 16 18 20 21 21 21 22 23 24 25 26 26 26 26 26 27 30 32 33 34 35 35 35 36 36 36 37 37 37 36 36 37 37 37 37 37 37 38 38 38 38 38
14 15 16 17 18 19 21 21 22 23 23 24 25 25 25 25 26 26 28 30 31 32 33 34 35 35 35 36 36 36 36 36 36 36 37 37 36 36 36 37 37 37 38 38
13 14 14 15 16 17 19 20 21 21 21 22 23 24 24 24 24 25 26 28 30 31 32 33 33 33 33 34 35 35 35 35 36 36 36 36 36 36 36 36 36 37 37 37
12 13 13 14 15 16 17 19 20 21 21 22 22 23 23 23 23 23 24 26 28 29 31 31 32 32 33 32 33 34 34 34 34 35 35 36 36 35 35 35 35 36 36 36
13 13 14 14 14 15 16 17 19 20 21 21 22 23 24 24 24 24 24 25 26 28 29 30 31 32 32 32 33 33 33 33 33 34 34 35 35 35 35 35 35 35 35 35
12 12 13 14 15 16 16 17 18 18 20 21 21 22 23 23 23 23 24 24 25 26 27 29 30 31 31 32 32 32 32 32 32 32 33 33 33 33 33 33 33 33 34 34
11 11 12 13 14 15 15 16 16 17 18 19 19 20 22 23 22 23 24 25 25 26 27 28 29 30 30 30 30 31 31 31 31 32 32 32 31 31 31 31 32 32 33 34
Wind_Direction
228 228 229 229 231 232 232 232 232 232 232 232 232 232 231 230 231 231 231 232 232 233 233 234 235 236 237 238 239 239 240 241 243 245 246 248 250 252 254 256 259 261 264 266
228 229 229 229 229 230 231 232 232 232 232 233 233 232 231 230 231 231 232 232 232 233 233 234 235 236 237 238 239 240 241 241 243 244 246 248 250 252 255 257 260 263 265 267
231 230 229 228 228 228 230 231 232 234 234 234 234 233 232 231 231 231 232 232 232 233 233 234 235 236 236 237 238 240 241 242 243 244 245 247 249 252 255 258 260 263 265 267
231 229 229 229 228 228 230 230 232 233 234 234 233 234 232 232 232 232 232 233 233 233 234 234 235 236 236 237 239 240 241 243 244 245 246 248 250 252 255 257 260 263 266 267
231 230 230 229 227 226 228 230 233 234 235 236 234 235 232 232 232 232 232 232 233 233 234 234 235 235 236 237 238 240 241 242 243 245 247 248 250 252 255 258 260 263 266 268
232 230 230 229 226 227 227 230 233 235 237 238 235 235 234 233 232 232 232 232 232 233 233 234 235 235 236 237 238 239 240 241 243 245 247 249 251 253 255 258 261 264 266 268
231 230 229 229 228 227 226 228 231 234 236 238 236 236 236 234 232 232 232 231 232 232 232 233 234 235 236 236 237 238 240 241 243 245 248 249 251 253 256 259 261 264 267 269
231 229 228 229 229 228 227 229 232 236 237 239 238 238 236 235 233 232 233 232 232 232 232 233 234 235 236 236 237 238 239 241 243 245 247 249 252 254 256 259 261 264 266 269
233 233 229 230 229 227 226 228 231 236 239 241 240 239 238 236 235 233 233 233 232 232 232 233 234 235 235 236 237 238 239 241 242 244 246 249 252 254 256 258 261 263 266 268
237 236 231 230 228 227 227 228 231 235 238 241 241 240 238 237 237 235 234 234 234 233 232 232 233 234 234 235 237 238 239 241 242 244 246 249 251 253 255 258 261 263 265 267
238 237 231 230 228 227 225 228 231 233 235 238 242 241 237 237 235 235 234 233 234 234 233 233 234 234 234 235 236 238 239 240 242 244 246 249 251 253 255 258 260 263 265 267
238 235 232 229 229 228 228 229 230 231 234 236 240 241 238 237 235 233 232 231 231 232 233 233 234 235 235 235 237 238 239 241 243 245 247 249 250 252 255 258 260 263 265 268
237 236 233 229 229 229 228 227 228 230 233 236 238 240 238 237 234 232 231 230 230 230 230 231 232 234 235 236 237 239 240 241 243 245 247 249 250 252 255 257 260 263 266 268
242 237 234 234 232 233 231 230 229 231 233 235 236 238 237 236 235 233 232 231 229 229 229 230 231 232 234 235 236 237 238 240 242 244 247 248 250 253 254 257 260 262 265 267
244 239 235 236 235 234 233 233 232 233 233 235 236 236 235 234 234 232 231 230 229 228 229 230 231 232 233 234 235 236 238 239 242 244 246 248 250 253 255 257 260 262 265 267
246 242 238 237 237 235 232 231 231 232 232 234 234 233 233 233 233 231 230 229 229 229 229 230 230 231 233 234 235 236 238 240 242 244 246 248 250 253 255 258 261 263 266 267
251 248 246 244 241 237 232 230 231 232 233 234 235 234 232 232 233 232 230 229 229 229 229 230 230 230 232 233 235 237 238 240 242 244 246 248 250 252 255 258 261 263 265 267
256 254 251 248 242 240 235 234 235 236 234 234 235 235 233 232 232 231 230 229 228 228 229 230 231 231 232 234 236 238 239 240 242 244 247 249 251 252 255 257 260 263 265 267
260 256 253 248 246 242 238 237 235 236 233 234 234 234 232 232 232 231 231 230 229 228 229 230 231 232 232 234 236 238 239 241 242 244 247 249 250 252 255 257 259 262 265 267
261 259 254 248 244 240 238 237 235 236 234 233 234 233 232 233 231 229 230 229 229 228 229 230 231 232 232 234 236 237 239 241 242 244 246 248 250 253 256 258 260 262 264 267
261 258 254 249 246 241 237 237 234 236 235 233 232 232 231 231 231 228 229 229 229 229 229 230 231 232 233 234 235 236 238 240 242 244 245 247 249 253 256 258 260 262 265 268
268 260 254 251 246 240 238 236 237 237 234 233 232 231 229 229 229 229 230 230 230 231 231 231 232 233 234 235 236 237 239 241 242 244 245 247 249 252 256 258 260 263 266 269
271 263 253 247 244 243 240 238 237 236 234 234 234 232 231 230 228 230 231 231 230 230 231 231 232 232 234 236 237 238 239 241 243 244 246 248 250 252 255 258 260 263 266 270
271 266 257 248 241 240 240 239 237 236 237 236 236 236 235 233 231 230 231 231 231 229 231 232 232 233 234 236 238 240 241 244 246 246 247 248 250 252 254 258 260 263 267 270
275 270 260 250 243 239 239 240 239 238 238 237 237 237 238 238 236 233 232 232 232 231 231 233 233 234 236 238 239 240 242 244 245 246 248 250 251 253 255 258 261 265 268 271
274 270 262 252 245 240 238 240 239 238 236 235 236 237 238 239 239 238 235 232 231 232 234 234 234 234 235 237 239 241 243 243 244 246 248 250 251 252 255 259 263 267 271 274
Height
5613 5620 5626 5634 5641 5648 5653 5659 5665 5671 5676 5681 5687 5693 5699 5704 5709 5715 5721 5726 5731 5736 5740 5744 5748 5752 5756 5760 5764 5767 5770 5774 5776 5779 5781 5783 5785 5786 5787 5788 5789 5790 5790 5791
5605 5611 5619 5624 5630 5635 5641 5647 5653 5659 5665 5670 5675 5681 5688 5694 5700 5706 5711 5717 5722 5726 5730 5735 5739 5743 5747 5751 5755 5759 5763 5766 5769 5771 5773 5775 5777 5779 5780 5781 5782 5782 5783 5783
5597 5604 5608 5614 5619 5625 5631 5637 5643 5649 5654 5658 5664 5670 5678 5684 5690 5696 5701 5706 5711 5717 5721 5726 5730 5735 5739 5743 5747 5751 5754 5757 5760 5762 5765 5767 5769 5771 5773 5774 5774 5775 5775 5775
5588 5594 5599 5604 5610 5616 5622 5628 5633 5637 5642 5647 5653 5658 5667 5674 5680 5686 5691 5697 5702 5707 5712 5716 5721 5726 5730 5734 5738 5742 5745 5748 5751 5754 5757 5759 5761 5763 5765 5766 5766 5767 5767 5767
5581 5586 5591 5596 5602 5607 5613 5618 5623 5627 5631 5636 5642 5646 5656 5663 5669 5675 5682 5687 5692 5697 5702 5707 5712 5716 5721 5725 5729 5732 5736 5739 5743 5746 5748 5751 5753 5755 5756 5757 5758 5759 5759 5759
5574 5579 5583 5588 5593 5598 5603 5609 5613 5617 5620 5625 5632 5636 5644 5651 5659 5665 5671 5676 5682 5687 5692 5697 5702 5706 5711 5715 5719 5723 5727 5731 5734 5737 5740 5742 5744 5746 5748 5749 5750 5750 5751 5750
5567 5571 5575 5580 5584 5589 5595 5601 5605 5607 5610 5615 5622 5626 5633 5641 5648 5654 5660 5666 5671 5676 5682 5687 5692 5697 5701 5706 5710 5714 5718 5721 5725 5728 5731 5733 5735 5737 5739 5740 5741 5742 5742 5742
5561 5565 5569 5572 5577 5582 5587 5593 5598 5601 5604 5608 5613 5616 5625 5631 5637 5643 5648 5654 5660 5666 5671 5677 5682 5687 5692 5696 5701 5705 5709 5712 5716 5719 5722 5724 5726 5728 5730 5731 5732 5733 5733 5733
5556 5560 5563 5566 5570 5575 5579 5584 5589 5592 5595 5599 5603 5609 5615 5621 5626 5632 5637 5643 5649 5655 5661 5666 5671 5677 5682 5686 5691 5695 5699 5703 5706 5709 5712 5714 5717 5719 5721 5722 5723 5723 5723 5723
5550 5554 5557 5560 5563 5567 5572 5576 5581 5584 5587 5590 5595 5600 5606 5611 5617 5622 5628 5633 5638 5644 5650 5655 5661 5666 5671 5676 5681 5685 5689 5693 5696 5699 5702 5705 5707 5709 5711 5712 5713 5714 5714 5714
5545 5548 5551 5553 5556 5560 5565 5569 5572 5576 5580 5584 5588 5594 5598 5603 5608 5613 5618 5623 5628 5634 5640 5645 5651 5656 5661 5666 5671 5675 5679 5683 5686 5690 5693 5695 5698 5700 5701 5703 5704 5704 5704 5704
5540 5543 5545 5548 5551 5554 5558 5562 5566 5570 5573 5577 5581 5588 5590 5594 5599 5603 5609 5614 5619 5624 5630 5635 5641 5646 5651 5656 5661 5665 5669 5673 5677 5680 5683 5685 5688 5690 5691 5693 5694 5695 5695 5695
5535 5537 5539 5542 5547 5549 5551 5554 5558 5562 5565 5569 5573 5580 5582 5586 5590 5594 5599 5604 5610 5615 5620 5625 5631 5636 5641 5646 5651 5655 5659 5663 5666 5670 5673 5675 5678 5680 5681 5683 5684 5685 5685 5685
5530 5532 5535 5537 5539 5542 5545 5548 5551 5554 5557 5561 5566 5571 5575 5578 5581 5586 5590 5595 5600 5606 5611 5616 5621 5626 5631 5636 5641 5645 5649 5653 5656 5660 5663 5666 5668 5670 5671 5673 5674 5675 5675 5675
5525 5527 5529 5531 5533 5536 5538 5541 5545 5548 5551 5555 5560 5563 5567 5570 5573 5577 5582 5587 5592 5597 5602 5607 5612 5617 5622 5627 5631 5636 5639 5643 5647 5650 5653 5656 5658 5660 5662 5663 5664 5665 5665 5665
5521 5523 5524 5527 5528 5530 5532 5535 5538 5541 5544 5548 5552 5556 5559 5562 5565 5569 5574 5579 5584 5589 5594 5598 5603 5608 5613 5617 5622 5626 5630 5633 5637 5640 5643 5645 5648 5650 5652 5653 5654 5655 5655 5655
5517 5518 5520 5522 5523 5524 5527 5529 5532 5535 5538 5542 5545 5549 5551 5555 5558 5561 5566 5570 5575 5581 5585 5590 5595 5599 5604 5608 5612 5616 5620 5624 5627 5630 5633 5636 5638 5640 5642 5644 5645 5646 5646 5646
5512 5513 5514 5516 5518 5519 5523 5524 5526 5529 5532 5535 5538 5541 5544 5547 5550 5554 5558 5562 5567 5572 5577 5581 5586 5591 5595 5599 5603 5607 5611 5614 5618 5621 5624 5626 5629 5631 5633 5634 5635 5636 5636 5636
5508 5508 5509 5510 5511 5514 5517 5518 5520 5523 5526 5528 5531 5534 5537 5540 5543 5547 5551 5555 5559 5564 5569 5573 5578 5582 5586 5590 5594 5598 5602 5605 5608 5611 5614 5617 5619 5621 5623 5624 5626 5626 5627 5627
5504 5504 5505 5505 5506 5509 5512 5513 5514 5518 5520 5523 5525 5527 5530 5533 5537 5542 5544 5548 5552 5556 5561 5565 5569 5573 5577 5582 5586 5589 5593 5596 5599 5602 5605 5607 5610 5612 5613 5615 5616 5616 5617 5617
5499 5499 5500 5500 5501 5503 5506 5507 5510 5514 5516 5517 5519 5521 5524 5527 5531 5534 5537 5541 5545 5549 5553 5557 5561 5565 5569 5573 5577 5581 5584 5587 5590 5592 5595 5598 5600 5602 5603 5604 5606 5606 5607 5607
5495 5495 5495 5495 5497 5500 5500 5501 5505 5507 5508 5510 5513 5515 5518 5522 5525 5527 5530 5534 5538 5541 5545 5549 5553 5557 5561 5564 5568 5572 5575 5578 5581 5583 5586 5589 5591 5593 5594 5595 5596 5597 5597 5597
5491 5491 5490 5492 5494 5493 5494 5496 5498 5500 5503 5505 5507 5510 5513 5516 5519 5522 5524 5527 5531 5534 5538 5542 5546 5549 5553 5556 5560 5563 5566 5569 5572 5574 5577 5579 5581 5583 5585 5586 5587 5588 5588 5588
5487 5486 5486 5487 5488 5489 5490 5491 5493 5495 5497 5499 5502 5505 5507 5510 5513 5515 5518 5521 5524 5527 5531 5534 5538 5542 5545 5549 5552 5555 5558 5561 5563 5566 5568 5570 5572 5574 5576 5577 5578 5578 5578 5578
5483 5482 5482 5482 5483 5484 5485 5486 5488 5490 5492 5494 5496 5499 5501 5504 5507 5509 5512 5514 5517 5521 5524 5527 5531 5534 5537 5541 5544 5547 5550 5552 5555 5557 5560 5561 5563 5565 5567 5568 5569 5569 5569 5568
5479 5478 5478 5478 5479 5480 5481 5482 5483 5485 5487 5489 5491 5493 5495 5498 5500 5503 5505 5508 5511 5514 5517 5520 5523 5527 5530 5533 5536 5539 5541 5544 5547 5549 5551 5553 5555 5556 5558 5559 5560 5560 5560 5559